Nebraska City, NE

2:24 AM CST on February 26, 2017 (GMT -0600)
Nebraska City Municipal

Weather History for KAFK - January, 2014

Change the Weather History Date:

Friday, January 24, 2014

  Actual Average (KSDA) Record (KSDA)
Temperature  
Mean Temperature 31 °F -  
Max Temperature 52 °F 37 °F 65 °F (1981)
Min Temperature 10 °F 17 °F -14 °F (2008)
Degree Days  
Heating Degree Days 34    
Moisture  
Dew Point 12 °F    
Average Humidity 46    
Maximum Humidity 60    
Minimum Humidity 32    
Precipitation  
Precipitation 0.00 in - - ()
Sea Level Pressure  
Sea Level Pressure 30.01 in    
Wind  
Wind Speed 19 mph (WSW)    
Max Wind Speed 31 mph    
Max Gust Speed 41 mph    
Visibility 10 miles    
Events      
Averages and records for this station are not official NWS values.
T = Trace of Precipitation, MM = Missing Value Source: NWS Daily Summary

Daily Weather History Graph

Daily Weather History Graph

Search for Another Location

Airport or City:

Trip Planner

Search our weather history database for the weather conditions in past years. The results will help you decide how hot, cold, wet, or windy it might be!

Date:

Astronomy

Jan. 24, 2014 Rise Set
Actual Time 7:39 AM CST 5:31 PM CST
Civil Twilight 7:10 AM CST 6:01 PM CST
Nautical Twilight 6:37 AM CST 6:34 PM CST
Astronomical Twilight 6:04 AM CST 7:06 PM CST
Moon 1:07 AM CST (1/24) 11:51 AM CST (1/24)
Length of Visible Light 10h 50m
Length of Day
9h 51m
Last Quarter, 44% of the Moon is Illuminated
Jan 24
Last Quarter
Jan 30
New
Feb 6
First Quarter
Feb 14
Full
Feb 22
Last Quarter

Hourly Weather History & Observations

Time (CST) Temp. Windchill Dew Point Humidity Pressure Visibility Wind Dir Wind Speed Gust Speed Precip Events Conditions
12:15 AM 10.0 °F -7.1 °F -5.3 °F 50% 30.47 in 10.0 mi SW 16.1 mph - N/A   Clear
12:35 AM 10.4 °F -6.0 °F -5.3 °F 49% 30.47 in 10.0 mi SW 15.0 mph - N/A   Clear
12:55 AM 10.4 °F -6.6 °F -5.1 °F 50% 30.45 in 10.0 mi SW 16.1 mph - N/A   Clear
1:15 AM 10.8 °F -6.7 °F -5.3 °F 49% 30.43 in 10.0 mi SW 17.3 mph - N/A   Clear
1:35 AM 11.7 °F -4.4 °F -5.8 °F 46% 30.43 in 10.0 mi SW 15.0 mph - N/A   Clear
1:55 AM 12.0 °F -4.0 °F -5.8 °F 45% 30.42 in 10.0 mi SW 15.0 mph - N/A   Clear
2:15 AM 12.9 °F -3.9 °F -6.0 °F 43% 30.40 in 10.0 mi SW 17.3 mph - N/A   Clear
2:35 AM 13.8 °F -3.7 °F -6.2 °F 41% 30.38 in 10.0 mi SW 19.6 mph 25.3 mph N/A   Clear
2:55 AM 14.5 °F -2.7 °F -6.2 °F 40% 30.36 in 10.0 mi SW 19.6 mph 27.6 mph N/A   Clear
3:15 AM 14.9 °F -1.3 °F -4.4 °F 42% 30.36 in 10.0 mi SW 17.3 mph 26.5 mph N/A   Clear
3:35 AM 14.5 °F -2.3 °F -3.3 °F 45% 30.33 in 10.0 mi SW 18.4 mph 24.2 mph N/A   Clear
3:55 AM 15.3 °F -0.4 °F -2.4 °F 46% 30.30 in 10.0 mi SW 16.1 mph 25.3 mph N/A   Clear
4:15 AM 14.9 °F -2.3 °F -2.2 °F 47% 30.28 in 10.0 mi SW 19.6 mph 25.3 mph N/A   Clear
4:35 AM 14.9 °F -3.1 °F -1.3 °F 49% 30.25 in 10.0 mi SW 21.9 mph 26.5 mph N/A   Clear
4:55 AM 14.9 °F -1.8 °F -0.4 °F 51% 30.23 in 10.0 mi SW 18.4 mph - N/A   Clear
5:15 AM 15.8 °F -1.5 °F 1.2 °F 53% 30.21 in 10.0 mi SW 20.7 mph 25.3 mph N/A   Clear
5:35 AM 16.3 °F -1.6 °F 2.3 °F 54% 30.20 in 10.0 mi SW 23.0 mph - N/A   Clear
5:55 AM 16.9 °F -0.1 °F 3.2 °F 55% 30.20 in 10.0 mi SW 20.7 mph - N/A   Clear
6:15 AM 17.1 °F 3.6 °F 3.7 °F 56% 30.21 in 10.0 mi SW 12.7 mph - N/A   Clear
6:35 AM 17.4 °F 1.5 °F 4.8 °F 58% 30.19 in 10.0 mi SW 18.4 mph 23.0 mph N/A   Clear
6:55 AM 18.5 °F 1.6 °F 5.7 °F 58% 30.17 in 10.0 mi SW 21.9 mph 29.9 mph N/A   Clear
7:15 AM 18.5 °F 0.6 °F 5.9 °F 58% 30.15 in 10.0 mi SW 25.3 mph 31.1 mph N/A   Clear
7:35 AM 18.7 °F 0.1 °F 6.4 °F 59% 30.12 in 10.0 mi SW 27.6 mph 33.4 mph N/A   Clear
7:55 AM 18.5 °F 0.6 °F 6.6 °F 60% 30.11 in 10.0 mi SW 25.3 mph 33.4 mph N/A   Clear
8:15 AM 19.0 °F 1.0 °F 7.2 °F 60% 30.10 in 10.0 mi SW 26.5 mph 32.2 mph N/A   Clear
8:35 AM 20.3 °F 3.3 °F 7.7 °F 58% 30.08 in 10.0 mi SW 24.2 mph 32.2 mph N/A   Clear
8:55 AM 22.1 °F 6.4 °F 8.6 °F 56% 30.10 in 10.0 mi WSW 21.9 mph 31.1 mph N/A   Clear
9:15 AM 22.6 °F 8.3 °F 8.6 °F 55% 30.08 in 10.0 mi WSW 18.4 mph 32.2 mph N/A   Clear
9:35 AM 23.7 °F 8.5 °F 9.1 °F 54% 30.07 in 10.0 mi WSW 21.9 mph 32.2 mph N/A   Clear
9:55 AM 24.6 °F 8.2 °F 9.3 °F 52% 30.06 in 10.0 mi WSW 27.6 mph 35.7 mph N/A   Clear
10:15 AM 25.7 °F 9.9 °F 9.5 °F 50% 30.05 in 10.0 mi WSW 26.5 mph 35.7 mph N/A   Clear
10:35 AM 27.0 °F 11.9 °F 9.9 °F 49% 30.05 in 10.0 mi WSW 25.3 mph 34.5 mph N/A   Clear
10:55 AM 28.8 °F 14.3 °F 10.0 °F 46% 30.03 in 10.0 mi WSW 25.3 mph 31.1 mph N/A   Clear
11:15 AM 30.7 °F 18.1 °F 10.4 °F 43% 30.03 in 10.0 mi WSW 20.7 mph 29.9 mph N/A   Clear
11:35 AM 32.5 °F 19.4 °F 10.4 °F 40% 30.00 in 10.0 mi WSW 25.3 mph 29.9 mph N/A   Clear
11:55 AM 34.2 °F 21.8 °F 10.4 °F 37% 29.99 in 10.0 mi West 24.2 mph 28.8 mph N/A   Clear
12:15 PM 34.7 °F 22.8 °F 10.6 °F 37% 29.97 in 10.0 mi WSW 23.0 mph 29.9 mph N/A   Scattered Clouds
12:35 PM 36.5 °F 25.2 °F 11.3 °F 35% 29.95 in 10.0 mi WSW 23.0 mph - N/A   Mostly Cloudy
12:55 PM 38.7 °F 28.6 °F 12.4 °F 34% 29.94 in 10.0 mi WSW 20.7 mph 28.8 mph N/A   Scattered Clouds
1:15 PM 39.9 °F 30.8 °F 13.1 °F 33% 29.92 in 10.0 mi WSW 18.4 mph - N/A   Scattered Clouds
1:35 PM 40.8 °F 31.7 °F 13.5 °F 33% 29.90 in 10.0 mi WSW 19.6 mph 25.3 mph N/A   Clear
1:55 PM 41.5 °F 32.9 °F 13.8 °F 32% 29.89 in 10.0 mi WSW 18.4 mph - N/A   Mostly Cloudy
2:15 PM 42.4 °F 34.1 °F 14.9 °F 33% 29.88 in 10.0 mi WSW 18.4 mph 26.5 mph N/A   Overcast
2:35 PM 43.9 °F 36.2 °F 15.8 °F 32% 29.87 in 10.0 mi WSW 17.3 mph 23.0 mph N/A   Scattered Clouds
2:55 PM 43.9 °F 36.5 °F 16.7 °F 34% 29.86 in 10.0 mi WSW 16.1 mph - N/A   Clear
3:15 PM 44.4 °F 37.2 °F 17.2 °F 34% 29.84 in 10.0 mi WSW 16.1 mph - N/A   Clear
3:35 PM 44.2 °F 36.4 °F 17.2 °F 34% 29.83 in 10.0 mi WSW 18.4 mph 24.2 mph N/A   Scattered Clouds
3:55 PM 43.7 °F 36.0 °F 16.5 °F 34% 29.83 in 10.0 mi SW 17.3 mph 23.0 mph N/A   Scattered Clouds
4:15 PM 43.3 °F 35.8 °F 16.5 °F 34% 29.82 in 10.0 mi SW 16.1 mph 19.6 mph N/A   Clear
4:35 PM 43.9 °F 36.5 °F 17.2 °F 34% 29.82 in 10.0 mi SW 16.1 mph 19.6 mph N/A   Mostly Cloudy
4:55 PM 43.7 °F 36.3 °F 17.4 °F 35% 29.82 in 10.0 mi SW 16.1 mph - N/A   Overcast
5:15 PM 43.0 °F 35.7 °F 17.1 °F 35% 29.80 in 10.0 mi SW 15.0 mph - N/A   Overcast
5:35 PM 42.6 °F 35.2 °F 17.2 °F 36% 29.79 in 10.0 mi SW 15.0 mph - N/A   Overcast
5:55 PM 42.1 °F 34.9 °F 17.6 °F 37% 29.78 in 10.0 mi SW 13.8 mph - N/A   Overcast
6:15 PM 42.4 °F 35.3 °F 18.3 °F 38% 29.76 in 10.0 mi SW 13.8 mph - N/A   Overcast
6:35 PM 42.8 °F 37.0 °F 19.4 °F 39% 29.77 in 10.0 mi WSW 10.4 mph - N/A   Overcast
6:55 PM 46.9 °F - 26.8 °F 45% 29.76 in 10.0 mi West 17.3 mph 23.0 mph N/A   Overcast
7:15 PM 48.0 °F - 26.4 °F 43% 29.74 in 10.0 mi WSW 13.8 mph - N/A   Overcast
7:35 PM 46.4 °F 40.4 °F 25.5 °F 44% 29.74 in 10.0 mi WSW 13.8 mph - N/A   Overcast
7:55 PM 45.9 °F 39.7 °F 27.3 °F 48% 29.73 in 10.0 mi WSW 13.8 mph - N/A   Overcast
8:15 PM 47.7 °F - 32.0 °F 55% 29.72 in 10.0 mi West 17.3 mph 20.7 mph N/A   Drizzle
8:35 PM 49.5 °F - 33.1 °F 53% 29.72 in 10.0 mi West 18.4 mph 29.9 mph N/A   Light Drizzle
8:55 PM 48.7 °F - 33.1 °F 55% 29.72 in 10.0 mi West 18.4 mph - N/A   Overcast
9:15 PM 49.5 °F - 32.9 °F 53% 29.71 in 10.0 mi West 18.4 mph 24.2 mph N/A   Overcast
9:35 PM 51.8 °F - 32.9 °F 49% 29.71 in 10.0 mi WNW 16.1 mph 24.2 mph N/A   Overcast
9:55 PM 52.7 °F - 32.9 °F 47% 29.71 in 10.0 mi WNW 20.7 mph 28.8 mph N/A   Overcast
10:15 PM 52.7 °F - 32.7 °F 47% 29.71 in 10.0 mi WNW 19.6 mph 26.5 mph N/A   Mostly Cloudy
10:35 PM 52.0 °F - 32.7 °F 48% 29.72 in 10.0 mi WNW 19.6 mph 26.5 mph N/A   Scattered Clouds
10:55 PM 51.4 °F - 33.1 °F 50% 29.72 in 10.0 mi NW 23.0 mph 29.9 mph N/A   Mostly Cloudy
11:15 PM 51.3 °F - 33.1 °F 50% 29.74 in 10.0 mi NNW 31.1 mph 36.8 mph N/A   Overcast
11:35 PM 49.5 °F - 32.5 °F 52% 29.75 in 10.0 mi NNW 28.8 mph 41.4 mph N/A   Scattered Clouds
11:55 PM 48.7 °F - 32.5 °F 54% 29.77 in 10.0 mi NNW 20.7 mph 28.8 mph N/A   Mostly Cloudy